This is the latest recevied weather packets stored in our database for station/object SK0BO-13. If no packets are shown the sender has not sent any weather packets the latest 10 day(s).
| Time | Temp. | Humidity | Pressure | Rain* | Wind** | Luminosity | Snow |
|---|---|---|---|---|---|---|---|
| 1777695039 | 12.78° C | 14% | 997.8 hPa | 0 mm | - | - | - |
| 1777692519 | 12.22° C | 13% | 998.7 hPa | 0 mm | - | - | - |
| 1777689999 | 12.78° C | 11% | 998.7 hPa | 0 mm | - | - | - |
| 1777687480 | 13.33° C | 10% | 998.7 hPa | 0 mm | - | - | - |
| 1777684959 | 13.89° C | 9% | 998.9 hPa | 0 mm | - | - | - |
| 1777682439 | 14.44° C | 8% | 999.5 hPa | 0 mm | - | - | - |
| 1777679919 | 15° C | 7% | 999.7 hPa | 0 mm | - | - | - |
| 1777677399 | 15° C | 6% | 999.7 hPa | 0 mm | - | - | - |
| 1777674880 | 16.11° C | 4% | 999.8 hPa | 0 mm | - | - | - |
| 1777672359 | 16.67° C | 2% | 1000.3 hPa | 0 mm | - | - | - |
| 1777669839 | 17.22° C | 1% | 1000.7 hPa | 0 mm | - | - | - |
| 1777667319 | 18.33° C | 100% | 1000.7 hPa | 0 mm | - | - | - |
| 1777664799 | 19.44° C | 100% | 1000.7 hPa | 0 mm | - | - | - |
| 1777662279 | 21.67° C | - | 1000.6 hPa | 0 mm | - | - | - |
| 1777659760 | 25° C | - | 999.8 hPa | 0 mm | - | - | - |
| 1777657240 | 30° C | - | 999.8 hPa | 0 mm | - | - | - |
| 1777654719 | 38.33° C | - | 1000.7 hPa | 0 mm | - | - | - |
| 1777652200 | 41.11° C | - | 1000.7 hPa | 0 mm | - | - | - |
| 1777649679 | 42.78° C | - | 1000.7 hPa | 0 mm | - | - | - |
| 1777647160 | 42.78° C | - | 1000.7 hPa | 0 mm | - | - | - |
| 1777644639 | 43.33° C | - | 1001.7 hPa | 0 mm | - | - | - |
| 1777642119 | 43.89° C | - | 1001.7 hPa | 0 mm | - | - | - |
| 1777639599 | 43.33° C | - | 1002.3 hPa | 0 mm | - | - | - |
| 1777637080 | 42.78° C | - | 1002.7 hPa | 0 mm | - | - | - |
| 1777634559 | 42.22° C | - | 1002.9 hPa | 0 mm | - | - | - |
* Rain latest hour (hover to see other rain measurements)
** Current wind speed in m/s (hover to see current wind gust speed)